User: anonymous   Login
Location: Unspecified
(0.0000°N, 0.0000°E)
Time: 14:37:00
(UTC+00:00)
Language:

OCO 2 - Orbit

View from above orbital plane
View from above orbital plane
View from above satellite
View from above satellite

Ground track
Ground track

The orbit data is extracted from the following two-line orbital elements,

1 40059U 14035A   22223.48987916  .00000217  00000-0  58248-4 0  9995
2 40059  98.2036 163.8830 0001305  83.2904 276.8443 14.57118898431343
Epoch (UTC): 11 August 2022 11:45:25
Eccentricity: 0.0001305
inclination: 98.2036°
perigee height: 701 km
apogee height: 703 km
right ascension of ascending node: 163.8830°
argument of perigee: 83.2904°
revolutions per day: 14.57118898
mean anomaly at epoch: 276.8443°
orbit number at epoch: 43134

The dashed part of the orbit path shows where the satellite is in the earth's shadow,  

DLR